DateTimeUTC,F1_A11,F1_S11,BsB_S11,BsG_S11,BsR_S11,BbsB_S11,BbsG_S11,BbsR_S11,BaB_A11,BaG_A11,BaR_A11,Tu_S11,T_S11,Uu_S11,U_S11,P_S11,T1_A11
2021-08-09T13:00:00Z,00000200,20000000,,,,,,,0000.39,0000.37,-000.07,19.4,25.8,08.7,05.9,0670.1,31.1
2021-08-09T13:01:00Z,00000200,20000000,,,,,,,-000.05,-000.32,0000.08,19.4,25.8,08.7,05.9,0670.1,31.1
2021-08-09T13:02:00Z,00000200,20000000,,,,,,,0000.15,0000.26,-000.03,19.4,25.9,08.8,05.9,0670.1,31.0
2021-08-09T13:03:00Z,00000200,60000000,,,,,,,-000.49,-000.19,0000.13,19.4,25.9,08.8,05.9,0670.1,31.0
2021-08-09T13:04:00Z,00000200,40000000,0000.79,0000.07,0000.29,0000.54,0000.25,0000.22,0000.22,0000.31,0000.17,19.4,25.7,08.8,06.0,0671.1,31.0
2021-08-09T13:05:00Z,00000200,00000000,0000.63,0000.83,0000.35,0000.42,0000.26,0000.27,-000.07,-000.28,0000.28,19.5,25.7,08.8,06.1,0671.2,31.1
2021-08-09T13:06:00Z,00000200,00000000,0000.71,0000.91,0000.46,0000.22,0000.19,0000.39,0000.16,-000.20,-000.17,19.5,25.7,08.9,06.1,0671.1,31.1
2021-08-09T13:07:00Z,00000200,00000000,0000.63,0000.39,0000.13,0000.20,0000.34,0000.33,0000.26,0000.29,0000.12,19.5,25.6,09.0,06.2,0671.1,31.1
2021-08-09T13:08:00Z,00000200,00000000,0000.61,0000.50,0000.38,0000.87,0000.28,0000.04,-000.27,0000.14,0000.19,19.5,25.6,08.9,06.1,0671.2,31.0
2021-08-09T13:09:00Z,00000200,00000000,0000.59,0000.38,0000.78,-000.38,0000.06,0000.13,0000.07,-000.01,-000.13,19.5,25.6,08.9,06.1,0671.2,31.0
2021-08-09T13:10:00Z,00000200,00000000,0000.53,0000.46,0000.20,0000.59,0000.10,0000.05,0000.07,-000.14,0000.15,19.5,25.6,09.0,06.2,0671.2,31.0
2021-08-09T13:11:00Z,00000200,00000000,0000.66,0001.08,0000.16,0000.25,-000.21,-000.09,0000.08,-000.05,0000.01,19.5,25.6,08.9,06.2,0671.2,31.0
2021-08-09T13:12:00Z,00000200,00000000,0000.26,0000.21,0000.13,0000.36,0000.18,-000.02,-000.60,0000.00,0000.01,19.5,25.6,08.8,06.1,0671.2,31.0
2021-08-09T13:13:00Z,00000200,00000000,0000.90,0000.17,0000.17,0000.20,0000.16,0000.16,0000.18,-000.06,0000.08,19.5,25.6,08.9,06.1,0671.2,31.0
2021-08-09T13:14:00Z,00000200,00000000,0000.41,0000.60,0000.11,-000.10,0000.21,0000.03,-000.24,0000.05,-000.15,19.5,25.6,08.8,06.1,0671.2,31.0
2021-08-09T13:15:00Z,00000200,00000000,0000.25,0000.47,0000.09,-000.04,-000.22,0000.05,0000.24,0000.24,0000.41,19.4,25.6,08.9,06.2,0671.2,31.1
2021-08-09T13:16:00Z,00000200,00000000,0000.36,0000.48,0000.32,0000.12,-000.10,0000.10,-000.01,0000.10,-000.01,19.4,25.6,08.9,06.1,0671.2,31.0
2021-08-09T13:17:00Z,00000200,00000000,0000.30,0000.51,0000.30,0000.04,0000.21,0000.23,0000.32,-000.03,0000.27,19.4,25.6,09.0,06.2,0671.2,31.0
2021-08-09T13:18:00Z,00000200,00000000,0000.46,0000.55,0000.38,0000.43,0000.06,0000.03,-000.31,-000.36,-000.35,19.4,25.6,09.0,06.2,0671.1,31.0
2021-08-09T13:19:00Z,00000200,00000000,-000.08,0000.49,0000.48,0000.11,0000.36,0000.18,0000.04,0000.17,0000.21,19.4,25.6,09.0,06.2,0671.1,31.0
2021-08-09T13:20:00Z,00000200,00000000,0000.74,0000.53,0000.02,0000.19,0000.20,0000.30,0000.13,0000.35,0000.03,19.4,25.6,08.9,06.2,0671.1,31.0
2021-08-09T13:21:00Z,00000200,00000000,0000.39,0000.15,0000.16,0000.06,-000.08,0000.24,0000.02,-000.08,0000.10,19.4,25.6,09.0,06.2,0671.2,31.0
2021-08-09T13:22:00Z,00000200,00000000,0000.70,0000.68,0000.36,0000.23,0000.16,0000.35,-000.51,-000.41,-000.12,19.4,25.6,09.0,06.2,0671.2,31.0
2021-08-09T13:23:00Z,00000200,00000000,0000.11,0000.61,0000.28,0000.47,0000.09,-000.13,0000.21,0000.45,0000.33,19.4,25.6,09.1,06.2,0671.2,31.0
2021-08-09T13:24:00Z,00000200,00000000,-000.00,0000.29,0000.04,0000.15,-000.06,-000.09,-000.19,-000.41,-000.39,19.4,25.6,09.1,06.3,0671.2,31.0
2021-08-09T13:25:00Z,00000200,00000000,0000.05,0000.27,0000.09,0000.31,0000.09,0000.37,0000.33,-000.10,0000.33,19.4,25.6,09.2,06.3,0671.1,31.0
2021-08-09T13:26:00Z,00000200,00000000,0000.47,0000.73,-000.07,0000.93,-000.06,-000.04,-000.11,0000.17,0000.02,19.4,25.5,09.1,06.3,0671.2,31.0
2021-08-09T13:27:00Z,00000200,00000000,0000.26,0000.67,0000.25,0000.21,0000.31,0000.17,-000.21,0000.16,0000.06,19.4,25.5,09.1,06.3,0671.1,31.0
2021-08-09T13:28:00Z,00000200,00000000,-000.14,0000.59,0000.28,0000.00,0000.06,0000.31,-000.22,-000.17,0000.04,19.4,25.5,09.1,06.2,0671.1,31.0
2021-08-09T13:29:00Z,00000200,00000000,0001.03,0000.71,0000.52,-000.01,-000.05,-000.10,-000.05,-000.18,0000.35,19.4,25.5,09.0,06.2,0671.1,31.1
2021-08-09T13:30:00Z,00000200,00000000,-000.09,0000.62,0000.52,-000.41,0000.37,0000.42,0000.36,0000.10,-000.01,19.4,25.5,09.0,06.2,0671.2,31.0
2021-08-09T13:31:00Z,00000200,00000000,0000.64,0000.59,0000.13,0000.15,0000.01,0000.21,0000.06,-000.03,-000.20,19.4,25.5,09.1,06.2,0671.1,31.0
2021-08-09T13:32:00Z,00000200,00000000,0000.99,0000.41,-000.13,0000.33,0000.03,0000.38,-000.11,0000.10,0000.45,19.4,25.5,09.1,06.3,0671.2,31.0
2021-08-09T13:33:00Z,00000200,00000000,0000.86,0000.46,0000.26,0000.70,-000.24,0000.30,-000.22,0000.14,0000.05,19.4,25.5,09.1,06.3,0671.2,31.0
2021-08-09T13:34:00Z,00000200,00000000,0000.72,0000.40,0000.21,-000.12,0000.11,0000.07,0000.36,0000.04,-000.01,19.4,25.5,09.2,06.4,0671.2,31.0
2021-08-09T13:35:00Z,00000200,00000000,0000.18,0000.57,0000.12,0000.36,0000.14,0000.43,0000.07,0000.00,-000.10,19.4,25.5,09.3,06.4,0671.2,31.0
2021-08-09T13:36:00Z,00000200,00000000,0000.75,0000.49,0000.28,0000.14,0000.15,-000.15,-000.22,0000.12,0000.17,19.4,25.5,09.4,06.5,0671.2,31.0
2021-08-09T13:37:00Z,00000200,00000000,0000.82,0000.95,0000.09,-000.40,0000.02,0000.15,0000.04,-000.12,0000.24,19.4,25.5,09.3,06.4,0671.2,31.0
2021-08-09T13:38:00Z,00000200,00000000,0000.74,0000.85,0000.43,0000.58,0000.11,0000.29,0000.36,0000.22,0000.26,19.4,25.5,09.4,06.5,0671.3,31.0
2021-08-09T13:39:00Z,00000200,00000000,0000.45,0000.37,0000.55,0000.44,0000.25,0000.26,-000.33,-000.28,-000.40,19.4,25.5,09.3,06.4,0671.2,31.0
2021-08-09T13:40:00Z,00000200,00000000,0000.49,0000.54,0000.13,0000.22,0000.37,0000.56,0000.19,0000.40,0000.50,19.4,25.5,09.3,06.4,0671.3,31.0
2021-08-09T13:41:00Z,00000200,00000000,0000.45,0000.91,-000.18,0000.50,0000.07,-000.11,0000.03,-000.09,-000.19,19.4,25.5,09.3,06.4,0671.3,31.0
2021-08-09T13:42:00Z,00000200,00000000,0000.14,0000.55,0000.31,-000.03,0000.27,0000.07,0000.06,0000.19,0000.77,19.4,25.5,09.5,06.5,0671.3,31.0
2021-08-09T13:43:00Z,00000200,00000000,0001.18,0000.32,-000.06,0000.48,-000.02,0000.15,0000.05,-000.26,-000.51,19.4,25.5,09.5,06.6,0671.3,31.0
2021-08-09T13:44:00Z,00000200,00000000,0000.87,0000.50,0000.14,0000.72,-000.32,-000.02,-000.64,-000.07,-000.24,19.4,25.5,09.5,06.5,0671.3,31.0
2021-08-09T13:45:00Z,00000200,00000000,0000.24,0000.56,0000.12,0000.26,0000.12,0000.20,0000.09,-000.01,0000.41,19.4,25.5,09.3,06.4,0671.3,31.0
2021-08-09T13:46:00Z,00000200,00000000,0000.56,0000.38,0000.66,0000.31,0000.31,0000.14,-000.36,-000.34,-000.25,19.4,25.5,09.4,06.5,0671.3,31.0
2021-08-09T13:47:00Z,00000200,00000000,0000.65,0000.73,0000.26,-000.12,-000.20,-000.26,0000.36,0000.37,-000.12,19.4,25.5,09.4,06.5,0671.3,31.0
2021-08-09T13:48:00Z,00000200,00000000,0001.25,0000.50,0000.40,0000.48,-000.13,-000.03,-000.35,-000.21,-000.06,19.4,25.4,09.4,06.5,0671.3,31.0
2021-08-09T13:49:00Z,00000200,00000000,0001.59,0000.54,-000.21,0000.04,0000.09,-000.10,0000.05,-000.22,0000.14,19.4,25.4,09.2,06.4,0671.2,31.0
2021-08-09T13:50:00Z,00000200,00000000,0001.67,0000.42,0000.05,-000.01,0000.16,0000.35,0000.06,-000.17,-000.30,19.4,25.5,09.3,06.4,0671.3,31.1
2021-08-09T13:51:00Z,00000200,00000000,0000.36,0000.58,0000.15,0000.02,0000.23,-000.11,-000.12,0000.13,0000.34,19.4,25.5,09.2,06.4,0671.3,31.0
2021-08-09T13:52:00Z,00000200,00000000,0000.10,0000.74,-000.01,-000.35,-000.02,-000.10,-000.18,-000.17,0000.14,19.4,25.5,09.3,06.5,0671.3,31.0
2021-08-09T13:53:00Z,00000200,00000000,0000.20,0000.44,0000.59,0000.56,0000.37,0000.19,-000.06,0000.06,-000.24,19.4,25.5,09.3,06.4,0671.3,31.0
2021-08-09T13:54:00Z,00000200,00000000,0001.09,0000.53,0000.05,0000.29,0000.32,0000.11,-000.04,-000.05,0000.27,19.4,25.5,09.1,06.3,0671.3,31.0
2021-08-09T13:55:00Z,00000200,00000000,0000.60,0000.29,0000.22,-000.11,0000.23,0000.14,0000.08,0000.63,0000.01,19.4,25.5,09.1,06.3,0671.3,31.0
2021-08-09T13:56:00Z,00000200,00000000,0000.43,0000.83,0000.17,0000.10,-000.13,0000.04,-000.60,-001.01,-000.04,19.4,25.5,09.2,06.4,0671.3,31.0
2021-08-09T13:57:00Z,00000200,40000000,,,,,,,0000.55,0000.19,0000.21,19.5,25.5,09.8,06.8,0671.3,31.0
2021-08-09T13:58:00Z,00000200,60000000,,,,,,,-000.42,-000.31,-000.15,19.2,25.6,09.1,06.1,0670.3,31.0
2021-08-09T13:59:00Z,00000200,20000000,,,,,,,0000.08,0000.17,-000.03,19.2,25.7,09.1,06.1,0670.2,31.0
